Abraham Lincoln Capital Airport Springfield US
ICAO: KSPI
IATA: SPI
Category: Large
Scheduled Services: Yes

Elevation: 598 ft
TransAlt. 18000 ft.

Airport Communications:
SPRINGFIELD APP/DEP:118.6
ATIS:127.65
CLNC DEL:121.7
CTAF:121.3
GND:121.9
ANG OPS:27.217
ST LOUIS RDO:122.25
SPRINGFIELD TWR:121.3
UNICOM:131.42

KSPI Zoom In..

Runways:

(A) RW 04 length 8001 ft width 150 ft
ILS 109.50 / hdg 43

(B) RW 13 length 7400 ft width 150 ft
---- / hdg 128

(C) RW 18 length 5300 ft width 150 ft
---- / hdg 182

(D) RW 22 length 8001 ft width 150 ft
ILS 111.70 / hdg 223

(E) RW 31 length 7400 ft width 150 ft
ILS 110.15 / hdg 308

(F) RW 36 length 5300 ft width 150 ft
---- / hdg 2

Location; KSPI
Day. 09 / Time. 01.52 Zulu
* Altimeter: 30.08
* Temperature: 26° c. 78.8°f.
* Wind from: 150° Speed 05 kn.
Dewpoint: 22° c.
Visibility: 10 Statute Miles.
Clouds: Broken 12000 ft.

KSPI 090152Z AUTO 15005KT 10SM BKN120 26/22 A3008 RMK AO2 SLP183 T02610222

Going to: --> -->


Wind From 150°
Speed 05 kn.

 
 
jpsmedia worldairports.se 2020   terms of use